Location: Andrea Ville Subdivision
(14.3485°N, 120.9580°E)
Time: 03:43:33
(UTC+00:00)

Cosmos 1934 Rocket - Visible Passes

Search period start: 21 April 2026 00:00
Search period end: 01 May 2026 00:00
Orbit: 936 x 999 km, 83.0° (Epoch: 20 April)

Date Brightness Start Highest point End Pass type
(mag) Time Alt. Az. Time Alt. Az. Time Alt. Az.
21 Apr 6.0 11:50:50 11° NE 11:50:50 11° NE 11:51:11 10° NE visible
21 Apr 6.4 13:35:15 16° NNW 13:35:15 16° NNW 13:36:39 10° NNW visible
22 Apr 5.4 12:12:42 24° NNE 12:12:42 24° NNE 12:15:12 10° NNE visible
22 Apr 6.7 13:57:07 11° NW 13:57:07 11° NW 13:57:35 10° NW visible
23 Apr 4.8 12:34:26 43° N 12:34:26 43° N 12:38:25 10° N visible
24 Apr 5.5 11:11:35 15° ENE 11:11:35 15° ENE 11:13:59 10° NE visible
24 Apr 5.1 12:55:58 41° WNW 12:55:58 41° WNW 13:01:01 10° NNW visible
25 Apr 4.6 11:32:51 33° E 11:33:13 33° E 11:38:40 10° NNE visible
25 Apr 6.0 13:17:12 21° W 13:18:12 21° W 13:22:47 10° NW visible
26 Apr 3.9 11:53:39 38° SSE 11:56:06 67° E 12:02:16 10° NNE visible
27 Apr 4.3 12:13:13 12° SSW 12:19:03 62° W 12:25:11 10° N visible
28 Apr 5.0 10:52:27 10° SE 10:57:12 23° E 11:01:53 10° NE visible
28 Apr 5.6 12:36:39 10° SW 12:42:04 31° W 12:47:26 10° NNW visible
29 Apr 4.2 11:14:06 10° SSE 11:20:03 46° E 11:25:56 10° NNE visible
29 Apr 6.6 13:01:51 10° WSW 13:05:09 15° W 13:08:26 10° NW visible
30 Apr 3.9 11:36:41 10° S 11:42:58 88° W 11:49:11 10° N visible
